Wind_Speed
16 16 16 17 18 18 18 17 16 15 14 14 15 14 14 14 13 11 9 9 10 11 11 10 9 9 9 8 8 8 9 11 13 13 13 14 14 13 13 12 12 14 14 14 14 13 13 14 15 15 16 16 16 15 15 15 14 14 14 14 13 13 13 12 12 12 12 11 11 11 11 11 11 10 10 10 10 9 9 9 9 9 9 9 9
16 16 16 17 19 20 19 19 18 17 16 16 15 15 14 14 14 13 12 11 10 10 10 10 10 10 10 9 8 8 8 10 12 13 14 14 14 15 15 14 13 14 15 16 15 14 14 15 15 15 16 17 17 16 16 15 15 15 15 15 14 14 14 13 13 13 12 12 12 12 12 12 12 11 11 11 10 11 11 10 10 10 10 11 11
17 17 17 18 20 21 21 21 20 19 18 17 16 16 15 15 15 15 15 14 12 11 11 11 11 11 11 11 10 9 8 9 11 12 13 14 15 16 16 16 15 15 16 17 17 16 15 15 16 16 16 17 18 17 17 16 16 16 16 16 15 15 15 15 14 14 13 13 13 13 13 13 13 12 12 12 12 12 12 11 11 11 11 12 12
20 20 20 21 22 22 22 22 22 22 21 19 17 17 16 15 15 16 16 15 14 13 13 13 12 12 13 12 12 10 9 10 10 11 12 14 15 15 16 17 17 16 17 17 18 18 17 16 17 17 17 18 18 18 18 18 17 17 17 17 17 16 16 16 15 15 14 14 14 14 14 14 13 13 13 13 13 13 12 12 12 12 12 12 13
23 24 25 24 25 24 23 23 23 23 23 21 19 18 17 16 15 16 16 16 16 15 15 15 14 14 14 13 14 12 10 10 10 10 11 12 14 15 16 16 17 17 17 18 19 19 19 18 18 18 19 19 19 19 19 19 19 19 18 18 18 18 18 17 17 16 16 15 15 15 15 14 14 14 13 13 14 14 13 13 14 14 13 13 13
23 24 26 27 27 27 26 25 24 24 24 23 22 20 20 18 15 15 16 15 16 16 15 14 14 14 15 15 15 14 12 11 10 11 12 12 13 15 16 17 17 16 16 18 19 21 21 21 20 20 19 20 20 19 19 19 19 20 19 19 20 19 19 19 18 18 17 17 16 16 16 16 15 15 15 15 15 15 15 15 15 15 15 14 14
24 24 25 26 26 27 28 28 26 25 25 25 24 23 22 21 18 16 15 15 14 14 13 13 12 12 15 16 15 15 14 13 12 12 12 12 13 14 16 17 17 17 17 16 17 21 23 23 22 21 21 21 21 20 20 20 20 20 21 21 21 21 20 20 20 19 19 19 18 18 17 17 16 16 16 16 16 16 16 16 16 16 16 16 15
25 25 25 25 24 25 26 26 26 26 27 27 27 26 24 24 22 19 17 16 15 13 13 13 13 13 15 16 16 17 16 14 15 14 12 13 13 13 14 16 18 19 19 18 17 19 22 24 24 23 23 22 22 22 21 21 20 20 21 21 21 21 21 21 22 21 21 21 20 19 19 18 18 17 17 17 17 17 17 17 17 17 17 17 16
23 24 26 25 23 24 24 24 24 24 26 27 27 27 26 25 24 23 21 18 16 15 15 14 14 14 15 17 18 19 18 17 17 15 14 15 14 13 13 15 16 18 20 20 18 18 20 23 25 25 24 24 23 23 23 22 21 21 21 21 21 21 22 22 22 22 22 22 22 21 21 20 20 19 19 18 18 18 18 18 18 18 18 18 18
23 23 25 25 24 25 26 26 25 24 24 25 25 25 25 24 24 24 24 22 18 16 16 16 15 14 14 18 20 19 19 19 19 18 17 16 16 15 14 15 16 17 19 20 18 18 18 20 23 26 26 26 26 25 24 24 23 22 22 22 22 22 22 22 22 22 22 22 22 22 22 22 22 21 20 20 20 20 20 20 20 20 20 20 20
25 22 22 25 26 26 26 26 25 24 25 25 24 24 24 23 21 21 23 25 22 18 17 16 15 14 14 17 17 18 20 21 21 21 19 16 16 16 15 16 17 17 17 20 20 19 19 20 20 23 26 27 28 27 27 26 25 25 24 23 23 22 22 22 22 23 23 23 22 22 22 22 22 23 22 22 21 21 21 21 21 21 21 21 21
21 19 19 21 23 24 25 24 24 25 26 26 25 24 24 21 20 21 21 23 23 18 16 15 14 15 15 16 15 15 19 22 24 23 21 18 16 16 15 15 16 17 18 19 20 19 20 21 21 21 23 24 26 28 28 28 28 27 27 26 25 24 24 24 23 23 24 23 23 23 23 23 22 22 22 22 22 22 22 22 22 22 22 22 21
14 14 16 18 20 22 23 23 23 24 26 27 27 25 24 24 26 27 22 20 19 18 17 14 13 14 15 15 17 17 17 22 26 25 22 20 17 17 17 15 15 17 18 20 22 21 20 21 23 23 22 23 24 26 27 28 29 29 28 28 27 26 26 26 25 25 25 25 24 24 24 24 23 23 23 22 22 22 23 23 23 23 22 22 22
13 13 13 15 17 19 21 21 22 23 25 28 29 28 27 28 29 27 24 23 20 17 16 15 13 15 13 10 12 15 16 19 24 24 23 21 19 19 19 19 18 17 17 19 22 23 22 21 23 24 24 24 24 25 26 27 28 29 29 29 28 28 27 27 27 26 26 26 26 26 26 25 25 24 24 23 23 23 23 23 23 23 22 22 22
13 13 12 12 14 16 18 19 19 21 25 27 30 32 31 30 27 25 24 25 23 18 17 17 15 13 10 7 7 9 9 12 16 19 21 21 21 21 21 21 22 21 18 18 20 22 23 23 23 25 26 26 25 25 26 28 29 29 29 28 28 27 27 26 26 27 27 27 27 27 27 27 27 26 26 25 25 24 24 23 23 23 23 22 22
14 14 14 14 14 14 16 17 18 20 24 27 29 32 33 31 27 26 27 24 22 20 19 20 18 12 7 6 6 7 7 8 9 12 16 18 20 21 21 22 24 24 23 21 20 21 23 26 26 27 28 28 27 26 26 27 29 29 30 29 28 28 27 26 26 26 26 26 27 27 27 27 27 27 27 27 26 26 25 25 25 24 24 23 23
16 16 17 17 16 15 15 16 17 19 23 26 28 29 31 31 27 29 31 26 22 20 19 21 22 18 14 9 6 6 6 7 8 8 10 13 15 17 18 20 22 23 26 26 24 22 23 25 27 29 30 30 30 30 29 28 28 28 30 30 30 29 28 27 27 26 26 26 26 26 26 26 26 26 26 26 26 25 25 25 25 25 25 24 24
17 17 17 17 16 15 15 16 17 18 22 25 27 28 29 29 26 27 28 26 24 21 17 18 19 20 24 23 18 13 8 6 6 6 6 9 11 13 15 17 18 20 24 26 25 25 25 24 27 30 31 31 32 32 32 32 31 30 30 30 30 30 29 28 28 28 27 27 27 26 26 25 25 25 25 25 25 25 25 25 25 25 25 25 25
18 17 16 15 15 13 13 15 15 16 20 23 26 27 26 24 23 24 26 27 27 26 21 16 15 18 23 26 27 23 17 12 9 7 6 7 9 11 12 13 14 16 20 22 22 23 24 24 26 28 31 33 33 33 33 34 33 32 32 33 32 31 30 30 29 29 29 28 28 27 27 26 25 25 25 26 25 25 26 25 25 25 25 25 25
17 17 16 15 15 13 12 13 14 14 16 20 22 22 21 20 21 24 27 28 27 29 27 20 17 18 19 22 24 26 25 20 15 12 9 8 8 10 12 13 13 14 15 17 19 20 21 22 24 26 27 30 33 34 34 34 34 33 33 34 34 34 33 32 32 31 30 29 29 28 28 27 26 26 25 25 25 25 25 25 25 24 24 24 24
14 15 15 14 13 13 13 13 13 14 15 17 18 19 18 18 20 22 23 24 26 28 27 23 21 20 18 18 20 23 26 25 21 17 13 11 10 9 11 12 13 15 15 16 17 18 19 20 24 26 25 26 29 32 33 34 35 35 35 35 35 35 35 35 34 33 32 32 31 30 30 29 29 28 27 26 25 25 25 24 24 23 23 23 23
13 12 12 11 10 11 12 13 13 14 15 15 16 17 17 17 19 21 22 24 29 28 25 27 26 22 20 17 18 20 18 17 19 18 16 14 12 11 13 13 11 13 14 16 18 18 18 19 21 24 24 24 25 28 30 32 34 36 36 36 36 36 36 37 36 36 35 34 33 32 32 32 31 30 29 27 26 26 25 25 24 24 24 23 23
11 10 9 9 9 9 10 11 12 12 13 14 15 16 15 15 16 19 21 24 27 26 24 28 29 27 27 24 22 22 17 15 18 18 16 14 11 11 14 16 14 14 13 13 16 18 18 19 19 20 21 22 23 24 27 29 30 32 35 36 37 37 38 38 38 37 36 36 35 34 33 32 31 30 29 29 28 27 26 26 25 25 24 24 24
10 10 10 10 9 8 8 9 9 9 10 11 12 13 13 13 14 14 17 20 22 22 22 25 26 27 30 29 25 22 21 24 24 19 17 17 13 10 13 15 14 15 15 13 14 17 18 20 20 20 20 22 24 25 26 28 29 30 31 33 35 37 38 38 38 38 37 37 36 35 34 33 31 30 30 30 29 29 28 27 27 26 25 25 26
12 12 12 11 10 9 9 9 9 9 9 10 10 10 12 13 13 12 14 15 17 20 22 21 22 25 28 27 22 19 22 29 28 22 18 18 16 13 15 16 14 14 14 13 13 15 17 20 20 20 21 23 25 27 28 29 30 30 29 30 31 32 34 36 36 37 36 36 36 35 34 33 31 31 30 30 30 30 29 28 28 28 27 26 26
14 13 12 12 11 10 10 10 10 9 10 10 9 9 11 13 14 14 15 16 15 18 21 19 20 24 26 24 22 22 26 29 26 22 21 20 18 16 14 15 16 16 15 16 15 14 15 17 19 21 23 25 26 27 28 28 28 28 27 27 28 28 29 30 31 32 33 33 34 33 32 31 30 30 29 29 29 29 29 28 28 28 28 27 27
12 12 12 12 11 11 10 10 10 10 10 10 9 10 11 13 14 15 16 17 16 19 21 22 23 24 24 24 24 26 29 27 22 20 23 23 22 21 17 12 13 13 13 15 17 18 18 16 17 20 22 25 26 26 27 26 26 26 25 26 28 27 27 26 27 27 28 29 29 29 29 28 28 28 28 27 27 27 27 27 28 27 27 27 27
11 11 11 11 11 11 11 10 9 9 9 10 9 9 10 11 13 15 16 16 16 18 21 24 26 26 25 26 28 30 33 31 26 23 23 23 24 24 22 18 13 10 10 11 13 16 20 19 18 19 21 24 26 27 27 26 25 25 25 26 28 27 26 24 24 24 25 26 26 26 25 25 25 25 24 24 24 24 25 25 26 26 27 27 27
9 10 10 10 11 10 10 10 10 11 11 11 10 10 10 10 11 14 16 16 16 18 20 23 26 26 26 29 31 33 34 33 29 24 22 23 25 25 26 26 20 12 10 10 10 12 16 19 18 17 17 21 24 24 26 27 27 26 25 27 27 27 25 23 22 22 22 23 23 23 22 21 21 21 20 21 21 22 23 24 25 25 26 27 27
9 9 9 10 9 9 10 12 14 15 13 12 12 11 11 11 11 13 15 16 18 19 20 22 25 26 27 29 31 32 32 30 27 25 23 23 24 24 26 27 23 17 15 12 11 14 16 17 18 16 14 16 18 19 22 24 23 22 24 26 26 25 23 22 21 20 19 20 20 19 19 19 19 18 19 19 20 21 22 23 24 25 26 27 27
11 9 9 9 9 10 12 15 16 16 14 13 13 13 13 14 14 14 15 16 18 20 20 20 22 23 25 27 27 28 28 26 24 24 24 24 24 24 24 25 24 24 23 15 10 15 18 17 18 17 14 15 15 16 18 20 18 18 21 24 24 21 20 20 20 19 18 18 18 17 17 17 17 17 18 18 19 21 22 23 24 25 26 26 27
12 10 8 8 9 11 13 15 15 15 15 15 15 16 16 17 17 17 17 18 19 22 22 22 22 22 24 25 26 28 29 26 25 25 25 24 25 24 24 24 24 26 27 19 12 16 21 20 18 17 15 15 16 16 17 19 18 18 19 22 22 18 16 16 18 18 18 17 16 15 15 15 15 16 17 17 18 19 20 21 22 23 24 25 26
13 12 10 9 10 11 12 13 14 14 15 16 17 17 17 19 20 20 19 18 20 23 23 24 25 24 25 26 28 31 31 28 25 26 26 25 25 25 24 24 24 25 28 23 15 16 21 22 21 20 17 16 17 17 18 19 19 20 20 20 19 16 14 15 16 17 17 15 14 14 14 15 16 17 18 19 20 20 20 21 21 22 23 24 25
14 14 13 12 12 11 10 11 12 14 16 16 17 17 18 19 20 19 19 18 20 22 22 24 26 25 25 27 30 33 32 29 27 28 28 25 25 25 25 25 26 27 27 26 19 16 20 22 22 22 21 19 19 19 18 19 19 19 20 19 17 16 17 17 17 17 16 15 14 14 15 17 18 19 20 21 22 22 22 23 23 23 24 24 25
14 15 14 13 12 11 11 11 12 14 15 15 16 17 18 19 19 19 20 20 21 22 23 25 25 26 27 27 29 34 34 31 29 29 29 28 26 26 26 26 27 27 26 26 23 19 21 23 22 21 21 20 20 20 20 20 19 18 19 19 18 19 21 21 20 19 18 17 16 16 17 18 20 21 21 22 22 22 22 23 23 24 24 24 24
15 14 13 13 12 12 12 13 13 14 15 15 16 18 18 18 19 20 20 20 21 24 27 27 27 27 27 26 29 34 35 33 29 27 29 30 27 27 27 28 29 28 26 26 25 23 21 21 21 22 21 20 20 20 19 20 19 20 21 21 21 22 22 23 22 21 21 20 19 19 19 19 20 21 22 23 23 23 23 23 23 23 24 24 24
15 15 13 12 12 12 13 14 15 17 17 17 18 18 18 18 19 19 21 21 22 26 30 32 31 30 27 27 30 32 33 33 30 26 28 31 32 32 32 31 30 29 28 26 26 24 22 22 21 21 20 19 19 19 19 19 19 20 21 21 21 22 22 22 23 23 23 22 21 21 21 21 21 21 22 23 23 23 24 23 23 23 23 23 24
16 16 15 13 12 12 13 14 16 18 19 19 19 18 18 19 20 19 21 23 24 25 29 31 30 29 28 29 30 30 31 33 30 28 29 30 32 34 34 33 31 30 29 28 27 25 23 24 23 22 21 20 19 19 19 19 19 18 18 19 20 21 22 21 22 22 23 23 23 22 22 22 22 22 23 23 24 24 24 24 24 24 23 23 23
16 16 16 16 14 14 14 15 17 18 19 20 18 17 19 20 20 22 24 26 26 26 28 29 28 27 27 29 30 29 30 31 30 31 31 31 33 35 34 34 33 30 28 28 28 26 23 23 24 24 24 23 20 18 18 19 20 19 18 17 17 19 20 21 21 21 21 22 22 22 22 22 22 23 23 23 24 24 24 25 25 24 24 23 23
16 16 16 17 17 17 18 19 19 17 17 18 17 17 19 19 20 23 25 26 26 26 28 29 28 28 27 27 28 28 28 31 32 33 31 30 32 33 32 32 30 27 26 26 26 26 23 22 23 24 24 23 21 20 19 19 19 20 19 17 17 17 16 18 21 20 19 20 20 19 20 21 21 23 24 24 24 24 24 25 25 24 24 24 23
16 16 16 16 18 19 19 20 19 17 16 16 15 16 17 18 20 21 22 24 26 25 28 31 30 29 28 28 27 27 28 30 32 33 32 30 30 30 30 33 32 28 27 26 25 24 23 22 23 22 21 21 20 20 20 21 19 18 18 17 17 16 15 17 19 18 17 17 18 19 19 21 21 21 21 21 22 23 23 24 24 24 24 23 23
16 15 15 16 17 18 19 18 18 17 16 14 13 15 15 16 19 20 20 24 25 25 28 31 30 29 29 28 28 27 28 30 32 34 34 34 34 34 34 35 34 31 29 26 25 26 24 22 23 22 20 21 22 21 21 21 21 19 18 18 18 18 16 16 17 17 17 15 16 17 19 20 19 17 16 16 17 18 21 23 24 24 23 23 22
15 15 15 17 17 18 18 17 17 16 14 11 12 15 14 14 18 20 21 22 22 24 27 28 28 28 28 26 24 25 26 27 29 32 35 36 36 38 39 37 35 33 30 28 29 30 28 25 24 24 22 23 24 23 22 23 22 20 19 19 19 19 17 14 13 13 14 13 13 14 15 16 15 13 13 13 13 13 16 20 23 23 22 21 20
15 15 16 16 17 17 17 17 17 15 13 11 13 14 14 15 17 20 22 20 19 22 24 25 27 29 29 27 20 17 21 23 25 27 31 35 37 39 41 42 41 39 36 34 33 32 30 28 26 25 24 25 24 23 23 23 22 20 20 20 20 20 18 15 13 12 10 10 12 11 10 11 11 11 12 13 11 11 13 18 21 21 20 19 19
15 15 16 15 15 15 16 17 17 16 14 13 14 14 14 16 18 20 21 20 19 20 20 22 26 28 28 29 26 20 17 19 23 25 27 29 33 37 40 43 45 45 44 42 40 37 33 29 28 28 27 26 25 24 24 24 21 20 20 20 20 19 18 16 16 14 10 9 11 10 9 10 10 11 13 12 11 11 12 15 19 19 18 18 17
15 16 16 14 13 14 15 16 17 17 17 16 14 13 14 16 19 20 19 19 19 20 20 21 25 26 27 27 27 25 23 20 20 22 24 26 28 31 36 42 45 45 46 47 46 44 41 35 32 31 29 27 26 24 24 24 22 20 20 21 21 20 19 18 17 14 11 10 12 11 10 10 12 14 14 12 11 11 12 13 16 18 18 17 17
15 16 16 14 13 13 14 15 17 17 17 16 13 13 14 16 18 19 18 18 19 19 20 21 23 25 25 24 24 24 22 20 21 21 23 26 27 27 30 37 40 38 39 45 48 48 47 43 38 34 30 29 28 25 23 24 24 22 21 20 20 19 17 16 15 14 13 13 13 12 11 10 12 14 14 11 10 11 11 12 14 17 17 16 16
14 15 14 13 13 14 14 15 16 16 16 14 11 11 13 15 18 18 17 17 19 19 19 20 21 22 22 21 22 24 22 21 24 24 21 21 26 27 27 32 35 34 34 39 45 49 49 45 42 39 34 31 30 29 26 24 25 24 21 18 17 16 14 14 14 15 15 14 15 16 14 12 12 13 12 10 10 11 10 10 12 16 16 15 15
13 14 14 15 15 15 15 15 15 15 16 13 9 9 11 13 16 18 17 18 19 19 19 20 21 21 22 22 23 25 26 27 28 29 25 19 19 25 28 31 34 35 35 35 38 46 50 48 45 42 38 33 31 32 30 28 27 25 21 18 17 17 15 13 12 14 15 14 15 18 16 14 13 13 11 9 10 10 10 10 13 15 15 14 14
13 14 15 16 17 16 15 15 14 14 15 12 8 8 10 12 15 17 17 18 20 20 21 22 21 21 21 22 23 25 27 29 29 29 28 24 17 16 23 30 32 32 33 33 33 38 46 50 48 44 41 37 33 32 33 32 30 27 24 22 20 18 17 15 13 14 14 14 16 18 16 15 13 13 11 9 9 10 10 10 13 16 16 15 13
13 15 16 17 17 16 15 15 14 12 13 12 9 8 10 12 14 16 17 17 19 21 22 23 23 22 22 23 24 25 26 27 28 29 29 27 25 19 14 20 28 31 33 36 35 33 37 46 49 46 44 41 36 34 33 33 32 30 29 28 25 21 19 18 17 13 10 12 18 20 17 15 14 14 12 10 7 7 9 9 11 16 17 15 13
Wind_Direction
247 251 254 256 258 257 255 253 252 250 249 251 252 255 260 261 259 253 245 241 247 261 270 269 268 269 270 266 266 268 269 269 264 258 256 254 253 251 248 246 245 244 241 240 240 238 233 229 227 227 226 224 222 224 226 228 229 230 231 231 231 230 231 231 233 235 237 238 239 241 243 246 248 251 254 256 259 262 265 270 274 277 280 282 284
251 255 257 259 261 262 260 258 257 254 251 252 253 254 255 256 257 256 252 249 246 250 260 264 263 263 265 266 266 265 265 268 266 261 258 255 253 253 252 250 251 250 245 240 238 238 238 233 230 231 230 228 227 227 229 231 232 233 234 235 235 235 235 236 236 238 240 243 244 245 247 250 252 254 257 260 262 263 266 270 273 277 280 283 285
255 258 258 260 262 263 263 263 261 258 255 254 256 257 256 254 253 253 254 252 248 247 252 257 259 259 260 262 263 262 263 267 266 263 260 257 255 254 255 253 253 255 251 244 239 236 238 238 234 233 233 233 232 231 232 233 235 236 237 238 238 238 239 240 240 241 242 244 246 248 250 252 255 257 260 263 264 266 269 272 275 278 280 284 286
258 261 262 263 264 263 262 263 262 261 260 257 256 260 264 261 255 252 252 252 249 247 248 252 256 258 259 261 261 259 260 264 263 259 258 259 257 255 255 255 255 256 252 247 243 238 237 239 238 236 235 236 236 235 235 235 235 238 240 240 241 241 242 243 244 245 245 246 248 250 253 255 257 259 262 264 266 268 271 273 275 278 280 283 285
262 265 267 267 266 265 262 262 262 262 262 259 257 259 264 265 260 255 251 249 249 248 249 251 253 256 258 259 260 258 255 257 257 255 257 259 259 257 255 254 256 256 252 248 245 241 237 237 238 238 237 238 238 238 238 237 238 239 241 243 244 244 245 246 247 248 248 249 250 252 254 256 258 260 262 263 266 269 271 274 275 277 279 281 284
264 267 269 269 267 266 264 261 262 262 262 261 258 257 260 263 261 257 252 248 247 249 249 248 250 253 256 257 258 258 255 252 248 249 256 260 260 258 256 254 253 253 253 250 248 244 239 236 236 236 238 239 240 240 240 239 241 242 243 245 247 247 247 248 249 250 251 252 252 254 256 257 259 261 262 263 265 268 271 273 275 276 278 280 282
268 267 267 267 266 265 265 264 263 263 262 262 261 258 258 259 259 256 251 246 243 246 246 244 244 247 253 256 257 259 258 252 247 247 251 257 260 259 256 255 253 252 252 251 250 247 243 238 234 234 236 238 240 241 242 242 242 243 245 246 249 250 250 251 252 253 254 254 255 256 258 259 260 261 263 264 265 268 270 272 274 276 278 279 281
272 272 269 264 262 262 263 265 266 264 263 263 263 261 257 256 257 254 250 246 242 242 244 244 242 242 248 254 257 261 260 255 251 250 249 251 253 253 254 255 255 253 252 251 249 248 246 241 236 234 235 237 239 241 242 243 243 244 246 247 249 251 252 253 254 256 257 257 257 258 259 260 261 262 264 265 266 267 269 271 273 276 278 279 281
264 269 270 263 260 260 262 266 267 268 267 262 261 260 258 256 256 255 251 248 245 242 244 245 245 243 246 252 259 262 260 258 257 253 250 251 250 244 246 253 257 255 252 251 249 246 245 244 240 237 236 237 238 240 242 243 244 245 246 247 248 250 252 254 255 256 257 258 259 260 261 262 263 264 265 266 266 267 269 271 272 274 276 278 280
262 263 263 261 260 260 265 267 265 268 268 263 259 256 254 253 253 254 252 250 247 244 243 242 245 246 248 255 259 260 259 260 260 257 254 253 251 246 244 249 257 258 253 248 247 245 242 244 245 243 240 240 239 240 242 243 244 245 246 247 248 250 251 253 254 256 257 258 259 261 261 263 264 265 267 268 268 268 270 271 272 274 275 277 279
272 269 263 263 264 263 267 268 264 263 262 262 259 253 252 251 249 251 252 250 248 245 245 244 246 247 252 259 259 257 258 259 260 259 256 252 250 249 248 249 253 256 254 249 247 245 242 242 244 245 243 242 242 242 243 244 246 246 247 249 250 251 252 253 254 256 258 259 260 261 262 264 265 266 267 268 269 269 269 270 271 274 276 278 280
278 275 268 268 267 266 268 267 264 263 260 259 257 252 249 246 246 250 249 247 245 244 245 245 248 252 255 259 258 257 256 256 258 259 257 253 250 249 248 248 249 251 252 250 247 245 244 243 242 243 243 243 244 244 243 244 246 248 249 251 252 253 255 256 256 257 259 260 260 262 263 266 267 268 269 269 270 271 272 273 274 276 278 280 282
281 277 270 268 266 266 267 267 265 262 259 257 254 251 246 244 249 249 245 243 241 240 241 240 245 250 254 257 258 258 255 255 257 257 256 254 251 250 248 246 245 247 251 250 249 247 245 245 244 243 243 243 245 246 247 247 248 250 252 253 254 255 258 259 259 259 261 261 261 262 263 266 268 269 270 270 271 272 274 275 277 278 279 281 282
281 278 273 267 265 264 265 268 268 262 258 255 253 251 247 247 249 245 242 247 245 239 233 228 234 242 248 259 263 259 252 254 257 253 252 252 249 248 248 247 246 244 245 246 247 246 244 244 245 245 245 245 246 248 250 251 251 252 253 255 256 256 258 260 262 262 262 262 262 262 264 266 267 268 269 271 272 273 274 275 277 277 279 280 280
281 280 277 272 269 266 266 268 269 265 259 253 252 253 251 249 247 240 237 241 243 239 224 220 230 237 241 251 261 265 254 251 255 248 245 247 246 246 245 246 247 245 241 240 242 243 242 242 242 244 246 246 246 248 250 252 253 253 254 255 256 257 258 260 262 263 263 264 264 264 265 266 267 268 269 270 271 273 274 275 276 277 277 278 279
282 281 279 278 276 272 271 270 269 267 263 258 255 255 255 250 246 240 233 229 233 234 224 222 228 224 221 241 251 261 257 250 259 251 241 242 242 243 243 243 246 246 243 240 238 239 241 243 243 244 246 246 247 248 250 252 254 255 255 254 254 255 256 258 259 261 263 264 265 266 266 267 268 268 269 270 271 273 274 275 276 276 276 277 278
282 280 279 279 277 274 275 275 274 272 268 264 261 258 257 254 248 238 230 227 230 233 228 223 224 219 216 223 234 247 252 250 264 259 238 238 241 239 239 240 242 243 244 244 241 239 239 241 243 245 247 248 248 249 250 252 255 256 257 255 253 253 253 255 255 256 259 261 263 265 267 268 268 269 270 270 271 273 274 275 275 275 276 276 276
289 285 281 279 277 276 277 278 278 275 270 266 262 258 258 257 248 235 230 235 239 241 235 220 221 226 226 229 236 244 254 249 253 263 246 239 242 240 237 237 238 239 243 245 243 241 240 239 242 245 247 248 249 250 251 252 254 255 256 256 254 253 252 253 253 255 257 259 261 263 265 267 268 270 270 270 271 272 273 274 274 275 275 275 275
296 290 285 280 279 279 281 281 278 274 271 266 261 258 258 255 246 238 240 243 242 243 238 220 219 231 231 233 238 243 249 249 248 263 268 251 243 246 247 242 239 237 240 244 242 240 239 238 240 243 247 249 250 251 252 253 254 254 255 256 256 255 254 253 254 256 258 259 261 262 263 265 267 268 269 269 270 270 271 271 271 272 273 273 273
298 292 286 280 280 281 283 285 281 277 273 266 262 260 259 255 248 244 243 241 237 237 236 225 220 230 233 232 236 241 244 247 250 253 262 269 260 256 259 257 250 243 241 243 243 240 238 238 240 242 244 248 251 252 253 253 254 254 255 257 257 256 255 256 256 257 258 260 261 261 262 264 265 267 268 268 267 268 269 269 269 269 270 271 271
305 295 288 283 282 284 286 287 286 287 282 268 263 265 263 256 250 247 243 237 234 233 232 230 228 233 235 227 228 237 241 242 244 244 246 258 264 263 264 262 256 249 243 241 243 243 240 239 243 246 245 245 250 253 254 254 254 255 256 257 258 258 257 258 258 258 258 259 260 261 263 265 266 267 267 267 265 265 265 266 267 266 267 269 270
318 308 299 294 293 292 292 291 289 291 290 278 268 272 272 262 255 252 246 242 242 241 238 240 239 239 242 232 222 230 237 237 236 235 237 244 252 262 265 263 260 255 245 239 242 244 242 241 244 247 247 245 247 251 253 255 255 255 256 257 257 258 259 259 260 260 260 260 261 262 264 267 268 267 265 265 265 264 263 263 264 265 265 265 266
323 321 316 313 310 305 300 295 292 291 294 291 282 282 281 271 264 259 251 247 248 246 239 240 243 243 246 242 230 229 233 236 234 228 228 235 242 254 259 258 260 260 253 242 242 244 243 242 242 244 245 246 247 249 252 255 256 257 258 258 257 257 258 258 259 260 260 260 261 263 265 267 267 266 264 264 264 264 264 263 263 264 265 264 264
323 325 324 323 319 314 309 302 298 295 295 298 293 288 282 275 270 262 254 246 240 238 234 235 242 246 245 242 234 231 233 237 238 231 226 234 240 250 257 257 258 260 256 250 247 246 244 243 243 243 243 246 250 252 255 258 260 261 261 260 259 258 257 257 258 259 260 260 261 263 265 267 266 265 264 264 264 264 264 263 262 263 265 265 264
320 321 322 324 322 315 313 308 303 301 295 296 298 289 279 276 274 268 264 252 235 239 244 239 239 245 244 241 235 233 236 237 237 234 231 236 240 250 257 255 257 261 258 255 254 254 248 242 242 243 244 247 251 255 258 260 260 262 262 261 261 260 259 257 257 258 259 260 261 263 265 266 265 265 265 265 264 264 263 263 263 263 264 264 264
315 316 318 321 321 317 314 311 306 306 301 297 295 286 279 277 275 269 270 266 247 245 254 250 244 245 244 244 240 238 240 238 235 232 233 237 240 243 251 253 253 257 259 256 254 256 252 245 241 242 246 250 251 253 257 258 258 259 259 259 260 260 259 257 256 256 257 258 260 261 263 263 263 264 264 264 263 262 262 262 262 263 264 264 263
311 312 315 315 316 316 314 314 311 310 308 304 300 293 288 285 281 275 272 270 259 250 251 250 250 250 249 249 248 245 243 240 234 231 235 239 240 240 243 250 252 253 256 255 249 247 248 250 246 241 244 252 252 252 256 257 257 259 258 256 257 257 257 256 255 254 255 256 257 258 259 260 261 261 261 261 260 260 260 261 261 261 261 261 261
312 310 313 313 314 315 314 314 316 317 319 319 315 306 300 294 287 283 278 273 265 255 251 250 251 253 253 252 251 250 249 245 240 239 239 239 239 238 239 244 252 255 253 253 250 247 245 247 251 243 240 251 254 252 255 258 258 259 258 255 255 255 255 254 253 253 253 253 254 254 256 257 258 257 256 256 257 257 258 258 258 258 257 256 257
315 312 312 312 313 313 312 317 324 329 331 331 327 320 313 303 291 288 284 278 271 265 261 260 258 256 254 252 250 250 251 248 244 241 239 240 239 237 239 243 247 252 255 254 250 249 245 241 244 243 239 248 254 252 254 257 259 259 258 255 255 254 253 251 250 250 251 251 251 251 251 251 252 252 252 252 253 255 255 256 256 255 254 254 253
318 314 313 313 312 310 314 321 327 331 331 330 328 323 318 309 298 292 286 280 276 272 268 264 263 260 255 253 251 250 249 248 245 239 233 235 238 236 238 241 241 240 247 255 252 250 249 242 239 240 238 244 251 253 255 256 256 255 254 253 253 252 251 249 247 247 248 246 244 244 244 246 248 249 250 252 253 254 255 255 255 255 254 253 252
323 315 311 312 310 309 316 321 324 327 326 325 324 322 317 312 306 298 291 285 280 276 271 265 263 260 255 252 249 246 246 246 244 240 232 229 233 235 236 236 234 234 237 247 257 250 247 245 244 243 240 242 247 248 250 252 250 250 252 251 251 251 250 247 243 240 239 239 238 239 241 243 246 248 250 252 253 254 255 255 255 255 254 253 252
325 318 310 308 308 309 313 316 317 319 320 319 319 319 318 316 312 306 300 295 288 283 278 271 266 262 258 255 250 247 247 244 240 240 236 228 227 231 234 233 232 231 230 234 249 251 247 247 251 251 245 243 245 243 244 248 250 251 252 251 250 250 248 244 237 232 231 233 234 236 241 243 246 250 252 254 255 255 255 255 255 254 254 254 253
319 318 314 309 308 308 308 310 312 314 315 318 319 321 321 321 318 313 308 302 295 291 287 282 275 268 263 258 255 253 250 244 238 238 237 230 227 230 232 232 231 229 226 228 239 252 252 249 249 250 249 247 246 241 239 244 250 252 252 251 250 249 248 244 237 231 228 229 235 241 245 248 251 255 258 260 259 257 256 256 255 254 253 252 253
309 311 312 311 309 308 304 304 310 314 315 318 321 321 322 323 323 322 318 312 305 299 294 289 283 275 269 263 260 259 253 245 240 238 236 232 230 231 230 229 231 231 227 226 232 245 250 249 247 247 246 245 245 242 238 240 244 246 246 250 253 255 256 252 244 239 233 233 243 251 252 253 255 258 260 261 261 260 259 259 258 256 254 252 252
307 306 306 305 306 307 305 307 312 316 317 318 320 320 319 321 323 323 321 317 313 309 301 295 288 280 273 266 262 262 257 247 241 238 235 234 233 232 231 230 233 234 229 225 227 234 245 248 247 247 244 240 241 243 241 240 240 240 241 248 255 259 261 257 250 244 240 240 248 254 254 255 257 258 260 261 261 261 261 261 261 259 257 255 254
310 309 306 302 304 308 311 315 318 319 318 317 318 316 315 318 319 319 319 316 313 312 307 302 295 285 275 268 268 267 259 249 242 236 233 234 234 232 233 235 234 233 230 226 224 228 238 245 245 244 244 241 239 240 240 240 241 243 246 249 255 258 258 254 249 245 243 244 250 253 253 254 256 258 260 260 261 261 262 262 262 261 260 259 258
310 311 310 307 309 311 312 317 320 320 321 321 318 313 310 316 318 316 318 315 311 310 308 304 300 292 281 273 273 270 259 249 244 237 232 232 234 233 235 236 234 232 231 228 226 225 229 239 243 243 242 241 240 239 237 238 241 245 247 248 251 254 253 249 246 244 244 247 250 252 252 253 256 258 260 260 261 262 263 263 262 261 261 261 261
310 310 310 309 311 312 311 312 313 315 319 321 317 312 312 318 319 317 318 314 308 304 302 299 296 292 284 277 273 267 257 250 244 239 236 232 231 232 234 234 231 231 231 230 229 226 225 233 241 242 240 239 240 239 235 234 237 241 244 245 247 248 248 246 244 244 247 250 251 252 253 255 259 261 261 261 261 261 261 261 260 260 260 261 263
310 308 308 306 304 305 303 303 305 306 309 314 315 315 317 321 321 319 318 313 308 305 302 298 295 291 286 279 273 265 258 252 244 241 240 234 232 233 232 232 231 231 230 229 229 229 228 232 236 239 240 239 238 238 235 231 232 236 239 242 244 243 243 243 244 245 248 252 254 255 256 259 261 264 264 263 261 259 258 258 257 256 257 259 261
308 308 309 305 301 299 298 299 302 302 302 307 315 319 318 321 323 321 319 315 310 308 306 304 300 295 289 281 273 266 259 253 246 244 241 237 236 235 231 229 229 228 228 228 228 229 229 230 234 237 239 238 235 235 234 229 228 232 233 237 242 242 240 243 245 244 245 250 253 256 259 260 260 264 266 264 261 258 256 256 256 255 255 256 258
309 312 312 309 306 305 305 303 301 299 297 302 315 322 318 320 325 324 321 318 315 312 311 310 307 301 295 285 274 266 259 255 250 247 244 240 237 234 230 230 229 226 226 227 228 228 228 229 233 234 234 234 232 232 231 225 225 230 230 231 239 243 243 247 249 247 244 246 250 253 256 258 261 265 266 265 262 259 256 255 254 253 252 252 255
315 316 315 314 314 313 312 308 301 296 293 297 315 324 318 318 326 327 323 321 319 317 317 318 316 313 305 291 276 267 262 258 254 251 248 245 240 238 236 233 229 226 226 225 225 225 225 227 230 230 230 231 230 229 229 226 223 226 227 227 234 240 243 247 251 249 243 238 242 246 251 256 260 261 260 259 260 258 256 254 253 252 251 251 252
320 319 318 318 318 318 317 312 304 296 291 296 317 325 320 320 327 329 326 324 321 320 323 325 324 324 322 309 284 266 261 259 256 253 251 248 244 242 240 235 231 229 227 224 225 224 224 226 228 227 227 229 228 225 227 226 220 219 223 227 230 232 234 239 246 246 236 228 229 235 244 252 252 248 247 250 251 252 252 254 254 253 250 248 249
322 320 319 320 320 324 326 321 311 299 289 298 318 324 322 324 327 328 330 330 326 324 328 332 332 334 338 337 322 285 266 262 258 255 253 250 246 244 242 239 238 237 232 229 230 228 224 224 226 225 224 226 226 222 224 225 218 214 218 222 225 228 229 231 238 240 231 220 218 220 231 239 235 235 242 244 244 247 250 254 255 251 245 243 245
321 318 317 318 322 328 330 329 322 307 294 300 316 321 322 324 324 324 330 336 334 329 333 338 341 343 344 346 348 339 314 291 273 262 256 251 248 245 244 242 240 240 237 235 236 234 229 225 224 225 224 224 223 221 222 221 214 209 214 218 221 225 227 228 234 237 228 211 209 215 229 229 221 233 244 242 241 245 249 254 253 244 236 237 242
319 315 312 313 320 326 330 332 330 319 307 305 313 319 321 321 320 319 325 336 337 335 339 342 343 348 351 349 349 349 345 333 312 288 272 260 250 243 241 240 239 238 237 236 236 235 233 230 228 228 226 223 222 222 220 217 211 207 211 215 217 219 223 228 236 237 227 214 212 220 236 230 220 232 243 243 244 246 246 251 247 234 228 232 239
318 315 310 309 315 321 327 330 331 328 319 313 314 320 320 316 316 317 320 331 338 338 340 345 347 351 355 352 348 346 341 338 337 321 295 275 259 245 235 235 235 234 234 233 232 232 232 231 231 232 229 225 224 224 221 217 215 213 213 217 216 213 217 227 234 232 225 221 218 220 235 235 219 228 240 241 244 247 244 247 241 226 222 230 239
323 319 313 312 314 316 320 325 328 329 326 321 317 321 322 318 317 318 318 324 334 338 339 348 353 352 352 350 348 348 342 340 346 343 322 292 270 255 242 237 234 231 230 232 232 232 230 229 229 231 231 229 227 226 224 223 224 222 219 222 219 212 215 222 226 225 221 218 215 216 231 238 223 225 237 235 235 238 236 241 234 220 220 230 237
327 323 316 313 312 312 315 320 324 328 328 325 317 315 320 321 320 321 319 318 325 331 335 343 349 348 350 354 353 351 348 348 352 351 346 328 288 261 250 244 240 234 231 231 231 232 232 230 228 227 229 230 228 228 228 229 232 226 219 220 219 214 217 220 220 221 217 213 211 213 226 235 223 221 229 225 226 231 231 232 224 214 218 227 229
327 325 321 316 312 310 311 316 322 327 326 320 310 305 313 320 321 322 321 318 319 323 328 333 338 341 347 353 355 353 350 351 354 354 355 354 334 289 260 249 243 239 235 229 225 228 230 229 228 226 225 227 227 227 230 232 232 225 217 217 218 213 213 216 218 219 215 213 212 209 218 229 221 215 218 217 221 227 227 230 224 214 215 220 222
327 329 327 324 320 316 314 317 323 331 329 318 305 299 305 313 317 319 320 318 317 321 326 328 329 334 342 349 353 355 353 353 356 357 360 3 2 349 311 264 245 240 238 231 222 219 220 222 223 223 223 224 224 226 229 230 229 225 220 221 220 215 213 215 216 215 212 215 211 204 208 220 215 208 209 210 217 218 211 220 223 212 209 214 219
Height
855 855 856 856 856 856 856 857 858 858 858 858 857 856 856 856 857 858 859 859 859 859 858 858 858 858 858 858 858 859 859 859 859 860 861 861 861 862 862 862 862 862 863 863 864 865 865 866 867 867 868 869 869 870 871 871 872 873 874 874 874 875 875 875 876 877 877 878 878 878 878 879 879 879 879 879 880 880 880 881 881 881 881 882 882
854 854 854 854 854 854 854 855 855 856 857 857 856 856 855 855 855 856 857 857 858 858 857 857 857 857 857 857 857 857 858 858 858 858 859 859 860 860 860 861 861 861 861 862 863 863 864 865 866 866 867 868 868 869 870 870 871 872 873 873 874 874 874 875 875 876 876 876 877 877 877 877 878 878 878 878 879 879 879 880 880 880 881 881 881
853 853 853 853 853 853 853 853 854 854 855 855 856 855 855 855 854 855 856 856 857 857 856 856 856 856 856 856 856 856 856 856 856 857 857 858 858 858 859 859 860 860 860 860 861 862 863 864 864 865 866 866 867 868 868 869 870 871 871 872 872 873 873 874 874 875 875 875 875 876 876 876 876 877 877 877 878 878 878 879 879 879 879 880 880
852 852 851 851 851 851 852 852 852 852 853 853 854 854 854 854 854 854 854 855 855 855 855 855 855 855 855 855 855 854 854 854 855 855 855 856 856 856 857 857 858 858 858 859 859 860 861 862 863 864 864 865 866 866 867 868 868 869 870 870 871 872 872 873 873 874 874 874 874 874 875 875 875 876 876 876 877 877 877 877 878 878 878 878 879
850 850 850 850 850 850 850 850 850 850 850 851 851 852 852 853 853 853 853 853 853 853 854 854 854 854 853 854 853 853 853 853 853 853 854 854 854 855 855 856 856 856 857 857 858 858 859 860 861 862 862 863 864 865 865 866 867 867 868 869 870 870 871 871 872 872 873 873 873 873 873 874 874 874 875 875 875 876 876 876 876 877 877 877 877
849 848 848 849 848 848 848 848 848 848 848 849 849 850 850 851 851 852 852 852 852 852 852 852 852 852 852 852 852 852 852 851 851 851 852 852 852 853 853 853 854 855 855 855 856 856 857 858 859 860 861 861 862 863 864 864 865 866 866 867 868 868 869 870 870 871 871 872 872 872 872 872 873 873 873 874 874 874 874 875 875 875 875 876 876
847 846 846 846 846 845 844 845 845 846 847 847 847 848 848 849 849 850 850 850 850 850 850 850 851 851 850 850 851 850 850 850 849 849 850 850 850 850 850 851 852 853 853 854 854 854 855 856 857 858 858 859 860 861 862 862 863 864 864 865 866 866 867 868 869 869 870 870 870 870 871 871 871 872 872 872 872 873 873 873 873 874 874 874 874
845 843 843 844 844 843 842 842 843 844 845 845 845 846 846 846 847 848 848 848 848 848 848 848 849 848 848 848 849 849 849 848 848 848 848 847 848 848 848 849 849 850 851 852 852 852 852 853 854 855 856 857 858 859 859 860 861 861 862 863 863 864 865 866 867 867 868 868 869 869 869 869 870 870 870 871 871 871 871 872 872 872 872 872 873
842 842 841 840 841 840 840 840 841 842 842 843 843 843 844 844 844 845 846 846 846 846 846 846 846 846 846 846 846 847 847 847 846 846 846 845 845 846 846 846 847 848 849 849 850 850 851 851 852 853 854 855 855 856 857 858 858 859 860 860 861 862 863 864 864 865 866 866 867 867 867 868 868 868 869 869 869 870 870 870 870 870 870 871 871
839 839 838 837 837 837 837 837 839 840 840 840 840 841 841 841 842 842 843 844 844 844 844 844 844 844 844 844 844 845 845 845 845 845 844 844 843 844 844 844 844 845 846 847 848 848 849 849 850 851 851 852 853 854 855 855 856 857 857 858 859 860 861 861 862 863 863 864 865 865 865 866 866 866 867 867 867 868 868 868 868 868 868 869 869
834 835 835 834 834 834 833 834 835 836 837 837 837 837 838 839 840 840 840 840 841 841 841 842 842 842 842 842 842 842 843 843 843 843 842 842 842 842 842 842 842 843 843 844 845 846 847 847 848 848 849 849 850 851 852 853 853 854 855 855 856 857 858 859 860 860 861 862 862 863 863 864 864 864 864 865 865 865 866 866 866 866 866 867 867
830 831 832 831 831 831 830 830 831 832 833 833 833 833 834 836 837 837 838 838 838 839 839 839 840 840 840 840 841 840 840 840 840 840 840 840 840 840 840 840 840 840 841 841 843 844 844 845 845 846 846 847 847 848 849 850 851 852 852 853 854 854 856 857 857 858 859 859 860 860 861 861 862 862 862 862 863 863 863 864 864 864 864 864 864
828 828 828 829 828 828 828 828 828 828 828 828 828 828 830 831 831 832 835 836 835 836 837 838 838 837 837 838 838 838 837 837 837 837 837 838 838 838 837 838 838 838 838 838 840 841 841 842 842 843 844 844 845 846 846 847 848 849 849 850 851 852 853 854 855 856 856 857 857 858 858 859 859 859 860 860 860 861 861 861 861 861 862 862 862
827 826 826 826 826 825 825 825 825 825 824 823 824 825 826 826 827 829 832 833 833 833 835 835 835 834 835 836 835 835 834 833 833 833 834 835 835 835 834 835 835 835 835 835 836 837 839 839 840 840 841 842 843 843 844 844 845 845 846 847 848 849 849 850 852 852 853 854 854 855 856 856 857 857 857 857 858 858 858 858 859 859 859 859 859
826 825 824 824 823 823 823 823 823 822 820 820 820 821 821 822 824 826 827 829 829 830 831 832 832 832 834 835 833 832 831 829 829 829 830 831 831 831 831 831 832 832 833 833 833 834 835 836 837 837 838 839 840 841 841 841 842 842 843 844 844 845 846 847 848 849 850 851 851 852 853 853 854 854 854 855 855 855 855 856 856 856 856 857 857
825 824 823 822 822 822 821 820 820 819 818 817 817 817 818 818 821 823 823 824 825 825 826 827 828 830 832 833 830 831 830 826 824 825 826 827 827 827 828 828 828 829 829 830 830 831 831 832 834 834 835 836 837 838 838 839 839 840 840 841 841 842 843 844 845 846 847 848 848 849 850 850 851 851 851 852 852 852 852 853 853 853 854 854 854
822 822 821 820 820 819 819 818 817 816 815 815 814 814 815 816 818 819 819 819 821 822 822 823 824 826 828 829 828 830 827 822 823 823 822 823 824 824 824 824 824 825 825 826 827 828 828 829 830 831 832 833 834 834 835 836 836 837 837 837 838 839 840 841 842 843 844 845 846 846 847 847 848 848 849 849 849 849 850 850 850 850 851 851 851
819 819 818 817 817 817 816 816 815 814 813 813 812 812 813 813 815 816 817 818 819 820 820 820 822 823 823 823 824 824 822 821 823 823 820 820 821 821 821 821 821 821 821 822 823 824 825 825 826 827 828 829 830 831 832 832 833 833 834 834 835 836 837 838 839 840 841 842 843 843 844 844 845 845 846 846 846 846 847 847 847 847 848 848 848
816 816 816 815 815 814 814 814 813 812 812 811 811 811 811 812 813 813 815 817 818 819 818 819 820 820 819 819 819 820 820 821 822 822 821 819 818 818 818 818 818 818 818 818 819 820 821 822 822 823 824 825 826 827 827 828 829 830 830 831 832 833 834 835 836 836 837 838 839 840 841 842 842 842 843 843 843 843 844 844 844 844 845 845 845
814 813 813 813 813 812 812 811 811 811 810 810 809 809 810 810 810 809 810 813 814 815 815 816 816 816 816 817 817 817 819 819 820 822 822 820 817 816 816 816 815 815 815 816 816 817 818 818 818 819 820 821 822 823 823 824 825 826 826 827 828 829 830 831 832 833 834 835 836 837 838 838 839 839 840 840 840 840 840 841 841 841 842 842 842
813 812 811 811 811 810 810 809 809 809 808 808 808 808 808 808 807 807 807 809 810 810 810 811 812 813 814 814 814 816 817 818 819 820 820 820 817 814 813 813 812 812 812 813 813 814 815 815 815 815 816 817 817 818 819 820 821 822 822 823 824 825 827 828 829 829 830 831 832 833 834 835 835 836 836 837 837 837 838 838 838 838 839 839 839
813 811 810 809 809 809 808 808 807 807 807 806 806 806 806 806 806 805 805 805 805 805 806 808 809 811 812 812 812 814 815 816 817 817 817 818 816 813 811 811 810 809 809 809 810 811 812 812 812 812 812 813 814 814 815 816 817 817 818 819 820 821 822 823 824 825 826 827 828 829 830 831 832 832 832 833 833 834 834 835 835 835 836 836 836
812 810 809 809 808 808 807 807 806 806 805 805 805 805 804 804 804 804 803 802 802 802 804 806 807 807 809 810 810 811 811 813 814 814 814 814 813 811 809 809 808 806 806 807 807 808 809 809 809 809 809 809 810 811 811 812 812 813 813 814 816 817 818 819 820 821 822 823 824 825 826 827 827 828 829 829 830 830 831 832 832 832 832 833 833
811 810 809 808 808 807 806 806 805 805 804 804 803 803 802 802 802 802 802 802 802 803 804 804 803 804 805 807 808 809 808 809 811 810 809 809 808 807 805 806 806 804 804 805 804 805 805 805 806 806 806 806 807 807 808 808 808 809 810 810 811 812 813 814 815 816 817 819 820 821 822 823 823 824 825 825 826 827 827 828 828 829 829 830 830
811 809 808 808 807 806 805 804 804 803 803 802 802 801 801 801 801 801 801 801 802 802 801 801 801 801 803 804 805 805 805 806 807 806 806 806 805 803 802 803 803 801 802 802 802 802 801 801 802 802 803 803 803 804 804 805 805 805 806 806 807 808 808 809 811 812 813 814 815 816 817 818 819 820 821 821 822 823 824 824 825 825 826 826 827
810 809 807 807 806 805 804 803 802 802 801 801 800 800 800 799 799 799 799 799 800 800 798 798 799 799 800 801 800 800 801 802 802 801 801 802 801 800 800 800 799 798 799 799 799 799 798 798 798 798 798 799 799 800 800 801 801 801 802 803 803 803 804 805 806 807 809 810 811 812 813 814 815 816 817 817 818 819 820 820 821 821 822 823 823
809 808 806 805 805 804 803 802 801 801 800 800 799 799 798 798 797 797 797 797 797 797 797 796 796 797 797 797 796 796 797 797 797 796 797 798 797 797 798 798 798 796 795 795 796 795 795 795 795 794 794 794 795 796 797 798 798 798 799 800 799 800 800 801 802 803 805 806 807 808 809 810 811 812 813 813 814 815 815 816 817 817 818 819 819
808 807 805 804 803 803 802 801 801 800 799 798 798 797 797 797 796 795 794 794 794 794 794 794 793 793 793 793 793 792 792 793 793 793 793 794 794 794 795 795 796 795 793 792 791 790 791 792 791 791 790 791 791 792 794 794 795 795 796 796 796 796 797 797 799 800 801 802 803 804 806 807 807 808 809 809 810 811 811 812 812 813 814 814 815
807 806 804 803 802 801 801 800 799 799 798 797 797 796 795 795 794 793 792 792 792 791 790 790 788 788 789 788 788 788 789 789 789 789 789 790 790 791 791 791 792 793 792 791 787 785 786 788 787 787 786 787 788 789 790 791 791 792 793 793 793 793 793 794 795 796 797 799 800 801 802 803 804 805 805 806 806 807 807 808 808 809 809 810 811
806 805 804 802 801 800 799 799 798 798 797 796 795 794 794 793 792 791 790 789 788 788 787 786 785 785 785 784 783 784 785 784 784 784 785 785 786 787 788 788 789 789 788 788 785 781 783 784 784 784 783 784 785 785 786 787 788 789 790 790 790 790 790 791 792 793 794 795 797 798 799 800 801 801 802 802 803 803 804 804 805 805 806 806 807
805 804 803 801 800 800 798 798 797 796 796 795 794 793 792 791 790 789 788 786 785 784 784 784 782 781 781 780 780 779 780 779 779 780 780 780 782 783 784 784 785 784 784 786 784 780 780 781 781 781 781 781 782 783 784 785 785 787 787 787 787 787 787 788 788 790 791 792 794 795 796 797 798 798 799 799 800 800 800 801 801 802 802 803 803
804 803 802 801 800 799 798 797 796 795 794 793 792 791 790 789 788 787 786 784 783 781 780 780 779 778 777 776 776 775 774 774 774 775 775 775 777 778 779 780 780 780 781 783 782 778 778 779 779 779 779 779 779 780 781 782 783 784 785 785 785 785 785 785 785 787 788 789 791 792 793 794 795 795 796 796 797 797 797 798 798 798 799 799 800
803 802 801 800 799 798 797 796 795 794 793 792 791 790 789 787 786 784 783 782 781 779 777 776 775 774 773 772 771 770 770 770 769 770 771 771 772 773 775 775 775 775 776 778 778 775 774 776 776 776 777 777 777 777 778 780 781 782 782 783 783 783 782 782 783 784 785 786 788 789 790 791 792 792 793 793 794 794 794 795 795 795 796 796 797
802 801 799 798 797 796 795 794 793 792 791 790 789 788 787 786 784 783 781 780 778 776 775 772 771 770 769 767 765 765 765 765 764 765 766 766 767 768 769 770 770 770 771 772 773 772 771 771 772 772 773 774 774 774 775 777 778 779 780 780 781 781 781 780 781 781 782 784 785 786 787 788 788 789 789 790 790 791 791 791 792 792 792 793 793
801 799 798 796 795 794 794 793 792 791 790 789 788 787 786 785 783 781 780 778 776 774 772 769 767 766 764 762 760 759 759 759 759 759 761 761 763 763 764 765 765 765 766 767 767 768 767 767 768 769 769 770 770 771 773 774 775 777 777 778 779 779 779 778 778 779 779 781 782 783 784 784 785 786 786 786 787 787 787 788 788 789 789 790 790
799 798 796 795 793 792 792 791 790 790 789 787 787 786 785 783 781 779 778 776 774 771 769 766 763 761 760 758 755 754 754 754 753 753 754 756 757 758 758 759 760 760 761 762 762 763 764 763 764 765 766 767 767 768 770 771 772 773 774 775 776 776 776 776 776 776 776 778 779 780 780 781 782 782 782 783 783 784 784 784 785 785 786 786 787
798 796 795 793 792 790 790 789 789 788 787 786 785 784 783 781 779 777 776 774 771 768 765 762 759 756 755 753 750 748 749 749 748 747 748 749 751 752 753 754 755 755 756 757 757 758 760 760 759 761 763 763 764 765 766 767 768 770 771 771 772 772 773 773 773 773 774 775 776 776 777 778 778 779 779 779 780 780 780 781 781 781 782 783 783
796 795 793 791 790 789 788 787 787 786 785 784 783 782 781 779 777 775 774 772 769 765 761 757 754 751 749 747 745 743 743 743 743 742 742 743 745 746 747 749 750 751 752 752 753 754 755 755 756 757 759 760 760 761 763 764 765 766 767 767 768 769 769 770 770 771 771 772 772 773 774 774 775 775 775 776 776 776 777 777 778 778 778 779 779
795 793 791 790 788 787 786 785 785 784 783 782 781 780 779 777 775 773 771 769 766 762 758 754 750 747 744 742 739 737 736 737 737 736 736 737 739 740 741 743 744 746 747 748 749 750 751 751 752 753 754 756 757 758 759 760 761 762 763 764 764 765 766 766 767 768 768 769 769 769 770 770 771 771 771 772 772 772 773 773 774 774 775 775 776
793 791 789 788 786 785 784 783 782 782 781 780 779 778 777 775 774 771 769 766 762 758 754 750 747 744 740 738 735 733 731 731 730 730 731 732 733 735 736 737 740 742 743 744 744 745 747 748 748 749 750 751 752 753 755 756 756 757 759 760 760 761 763 763 764 765 765 765 766 766 766 766 767 767 767 768 768 769 769 770 770 771 771 772 772
791 789 788 786 784 783 782 780 779 779 779 778 777 776 775 774 772 769 767 763 760 756 751 747 743 740 736 733 730 728 727 725 725 725 726 728 729 730 731 732 735 736 737 739 740 741 742 743 743 745 746 747 748 749 751 751 752 753 755 757 757 758 760 761 761 762 762 762 763 763 763 763 763 763 764 764 764 765 765 766 766 767 768 768 769
789 787 786 785 783 781 780 778 777 776 776 776 775 774 773 772 770 768 765 761 757 753 749 744 740 736 732 729 725 724 723 722 721 721 722 723 724 725 725 727 729 731 732 734 735 735 737 738 738 740 741 741 743 745 746 746 748 750 752 753 754 756 758 758 758 759 759 759 759 759 759 759 760 760 761 761 761 761 762 762 763 763 764 765 765
787 786 784 783 781 780 778 776 775 774 774 774 773 772 771 770 769 767 764 760 756 752 748 743 738 734 729 724 720 719 719 718 717 717 717 718 719 720 721 722 724 725 726 727 728 730 731 732 733 735 735 736 737 740 742 743 744 746 747 750 751 753 754 755 755 755 755 755 755 756 756 756 757 757 758 758 758 758 758 759 759 760 761 762 762
785 784 783 781 780 779 777 775 774 772 772 771 771 770 769 768 767 765 762 759 755 751 747 743 738 733 728 722 718 716 716 715 714 713 712 712 713 714 715 717 718 720 721 722 722 724 726 727 728 729 730 731 733 735 737 739 740 741 743 746 747 749 750 751 752 752 751 751 752 753 753 753 754 755 755 755 755 755 755 755 756 757 758 758 759
784 783 781 780 778 777 775 774 772 771 770 769 769 768 767 766 765 763 761 758 755 751 746 742 738 733 728 723 718 715 714 712 711 710 708 708 707 708 709 711 712 714 715 717 718 719 721 722 723 723 725 727 728 730 733 735 736 737 739 742 743 746 747 748 748 749 749 749 750 750 751 751 752 752 752 752 752 753 753 752 753 754 754 755 756
782 781 780 778 777 776 774 773 771 769 768 767 767 766 765 764 763 761 759 757 753 750 746 742 738 733 728 724 720 716 713 710 708 706 705 703 703 703 703 704 705 707 709 711 712 714 716 717 718 718 720 722 723 725 728 731 732 733 735 738 739 742 744 745 746 747 746 746 747 749 748 748 749 750 749 749 749 750 750 750 750 751 752 752 753
781 779 778 777 775 774 773 771 769 768 766 765 765 764 763 762 761 759 757 755 752 749 745 742 738 734 730 726 723 719 715 711 707 704 701 699 698 697 697 697 698 700 701 703 704 707 710 712 713 714 716 718 720 722 725 727 728 730 732 735 736 738 741 742 744 744 743 743 745 746 746 745 746 747 747 747 747 748 748 748 748 749 750 750 751
780 778 776 775 774 772 771 770 768 766 764 763 763 762 761 760 759 757 755 753 751 747 744 741 738 735 732 728 724 720 716 711 707 702 698 695 692 691 691 691 692 693 693 694 696 699 702 705 708 710 712 715 717 719 722 724 726 728 731 733 735 736 738 740 740 740 740 741 742 744 743 743 744 744 744 744 745 746 746 747 746 747 748 749 749
778 777 775 774 772 771 769 768 766 764 763 762 761 760 759 758 757 755 753 751 749 746 744 741 738 735 731 727 723 719 715 711 706 701 696 692 688 687 686 686 686 685 685 687 690 692 695 699 702 705 709 711 713 716 719 721 723 725 728 730 731 733 734 736 736 736 736 737 739 741 741 741 741 742 742 742 743 744 744 744 744 745 746 747 748
777 776 774 772 771 769 767 766 765 763 761 760 759 758 757 756 755 753 751 749 747 745 743 740 737 734 731 727 723 720 715 710 706 701 696 690 686 684 682 680 680 679 678 681 684 686 689 693 697 701 705 708 710 712 715 717 719 722 725 726 727 729 731 731 731 732 732 733 735 737 738 738 738 739 740 740 741 742 742 742 742 743 744 745 746
776 775 773 771 769 768 766 764 763 761 760 758 757 757 756 755 754 752 750 748 745 743 741 738 736 733 730 727 723 719 715 710 706 701 696 691 686 683 679 676 674 672 672 675 678 680 682 685 690 695 699 702 705 708 710 713 715 718 720 722 724 725 726 727 727 728 729 729 730 733 734 734 735 736 737 737 738 739 740 740 740 741 742 743 744